Location: 3 Angels Observatory
(30.5437°N, 88.5068°W)
Time: 21:46:13
(UTC-06:00)

Daily predictions for brighter satellites

Satellite Brightness Start Highest point End
(mag) Time Altitude Azimuth Time Altitude Azimuth Time Altitude Azimuth
COSMOS 2406 3.3 17:37:27 10° S 17:43:04 60° ESE 17:48:41 10° NNE
Meteor 1-11 4.3 17:38:54 10° S 17:44:20 56° E 17:49:50 10° NNE
Cosmos 2366 rocket 4.0 17:41:00 10° N 17:47:08 63° E 17:53:12 10° SSE
CZ-4 R/B 1.5 17:45:00 10° SSE 17:49:11 90° ESE 17:53:28 10° NNW
Cosmos 1455 3.7 17:46:52 10° NE 17:49:28 17° ENE 17:52:02 10° ESE
Cosmos 1151 Rocket 4.5 17:46:41 10° NE 17:49:38 18° ENE 17:52:35 10° ESE
YAOGAN 1 2.5 17:48:09 10° SSE 17:52:25 64° ENE 17:56:42 10° N
Cosmos 1626 2.1 17:48:45 10° S 17:52:27 87° E 17:56:10 10° N
SKYMED 2 3.5 17:48:11 10° NNE 17:52:31 78° ESE 17:56:51 10° S
Cosmos 1346 Rocket 3.4 17:49:03 10° NNE 17:52:36 33° E 17:56:07 10° SE
Cosmos 1315 Rocket 4.0 17:51:14 10° SSW 17:55:00 46° W 17:58:47 10° N
Hubble Space Telescope 2.4 17:51:43 10° SSW 17:55:02 23° SSE 17:58:20 10° ESE
Ariane Rocket 3.7 17:53:34 10° S 17:58:32 59° W 18:03:32 10° NNW
SL-27 R/B 4.1 17:56:49 10° SE 17:59:01 16° E 18:00:56 11° ENE
NOAA 12 4.5 17:54:28 10° SE 17:59:20 41° ENE 18:04:14 10° N
Nadezhda 3 Rocket 4.2 17:54:28 10° SSE 18:00:30 50° E 18:06:36 10° NNE
Centaur D-1A AC-32 4.2 18:02:15 10° S 18:04:38 16° SSE 18:07:49 10° ESE
Cosmos 2151 3.1 18:02:46 10° S 18:06:54 53° E 18:11:04 10° NNE
ALOS 2.2 18:08:36 10° SSE 18:13:13 70° ENE 18:17:52 10° N
SL-24 R/B - RUBIN 2 3.5 18:10:20 10° NNW 18:14:44 89° E 18:19:01 10° SSE
Landsat 4 4.2 18:11:36 10° N 18:15:16 62° WNW 18:18:56 10° SSW
ERS-2 2.8 18:12:05 10° SE 18:15:22 31° ENE 18:18:39 10° N
EO 1 Del DPAF 3.2 18:12:12 10° NNE 18:16:02 89° E 18:19:52 10° SSW
Cosmos 1656 Rocket 3.7 18:10:43 10° NNW 18:16:15 85° WSW 18:21:49 10° SSE
Centaur AC-64 3.7 18:14:57 10° SW 18:16:51 20° SSE 18:19:40 11° ESE
Cosmos 332 Rocket 4.0 18:12:43 10° SSW 18:17:36 78° WNW 18:22:31 10° NNE
Thor Agena Rocket 4.4 18:13:18 10° NE 18:17:46 28° E 18:22:09 10° SSE
MONITOR-E 4.4 18:21:16 10° S 18:24:17 71° WSW 18:27:20 10° NNW
CZ-4C R/B 2.2 18:22:55 10° S 18:27:38 47° ESE 18:31:21 18° NE
Cosmos 1515 Rocket 3.5 18:25:30 10° N 18:29:47 61° E 18:34:03 10° SSE
Cosmos 1777 Rocket 4.3 18:24:45 10° NNW 18:29:59 70° WSW 18:35:12 10° S
Tiangong 1 1.3 18:29:04 10° NW 18:31:08 33° NNE 18:31:08 33° NNE
SPOT 3 Rocket 3.4 18:28:43 10° SSE 18:33:51 84° ENE 18:39:01 10° N
Cosmos 1500 Rocket 3.7 18:31:29 10° S 18:35:56 79° W 18:40:25 10° N
OAO 3 Rocket 3.0 18:31:40 10° WNW 18:36:21 88° NNE 18:39:05 25° ESE
Lacrosse 5 1.8 18:32:27 10° SW 18:37:32 86° SE 18:40:56 21° NE
FENGYUN 3A 4.2 18:37:39 10° S 18:42:55 62° W 18:48:13 10° NNW
Meteor 2-15 4.4 18:37:28 10° S 18:43:36 90° WNW 18:49:42 10° N
USA 81 4.2 18:40:57 10° S 18:46:12 74° W 18:51:28 10° N
Cosmos 2239 Rocket 4.4 18:40:10 10° N 18:46:14 61° E 18:52:18 10° SSE
ASTRO E2 2.5 18:46:13 10° W 18:50:13 87° NNE 18:51:07 52° E
Cosmos 2208 Rocket 4.4 18:45:33 10° SSW 18:50:44 63° WNW 18:56:02 10° N
Cosmos 468 Rocket 3.8 18:47:29 10° SSW 18:52:37 85° ESE 18:56:34 17° NNE
Cosmos 841 Rocket 4.1 18:53:16 10° SSE 18:57:23 34° ESE 18:57:23 34° ESE
Cosmos 1814 Rocket 4.1 18:53:00 10° S 18:58:13 56° ESE 18:59:56 39° NE
Cosmos 1898 Rocket 4.3 18:55:52 10° N 18:59:21 32° NE 18:59:21 32° NE
ATLAS CENTAUR R/B 2.8 18:58:18 10° S 18:59:50 21° SSE 18:59:50 21° SSE
Cosmos 2228 Rocket 4.3 18:59:20 10° NNW 19:03:41 45° W 19:08:03 10° SSW
ISS -3.0 19:00:47 10° WSW 19:03:52 44° NW 19:03:52 44° NW
Cosmos 1763 Rocket 3.3 19:00:39 10° S 19:05:42 63° ESE 19:06:37 53° ENE
Cosmos 2082 Rocket 2.2 19:00:22 10° S 19:05:52 54° ESE 19:06:43 49° ENE
H-2A R/B 4.0 19:12:28 10° S 19:16:03 40° W 19:19:41 10° NNW
SEDSat Delta rocket 3.8 19:11:01 10° W 19:17:47 86° N 19:19:05 60° E
Cosmos 1833 Rocket 2.6 19:22:50 10° SSW 19:28:26 87° WNW 19:29:06 71° N
Cosmos 1805 Rocket 4.1 19:26:59 10° SSW 19:31:08 55° W 19:31:08 55° W
Hubble Space Telescope 2.3 19:31:54 10° WSW 19:34:20 32° SW 19:34:20 32° SW
CZ-4C R/B 4.3 20:12:48 10° W 20:16:26 19° NW 20:16:36 19° NW
Atlas Centaur 2 4.1 20:10:24 10° SW 20:13:58 25° SSW 20:13:58 25° SSW
